Weather History for KFUL - April, 2015

Change the Weather History Date:

Tuesday, April 21, 2015

  Actual Average Record
Temperature  
Mean Temperature 65 °F 63 °F  
Max Temperature 69 °F 74 °F 94 °F (2009)
Min Temperature 60 °F 53 °F 46 °F (2007)
Degree Days  
Heating Degree Days 0 3  
Month to date heating degree days 18 80  
Since 1 July heating degree days 414 1172  
Cooling Degree Days 0 1  
Month to date cooling degree days 43 18  
Year to date cooling degree days 244 40  
Growing Degree Days 14 (Base 50)    
Moisture  
Dew Point 46 °F    
Average Humidity 51    
Maximum Humidity 60    
Minimum Humidity 42    
Precipitation  
Precipitation 0.00 in 0.03 in 0.08 in (2001)
Month to date precipitation 0.21 0.61  
Year to date precipitation 1.72 9.05  
Snow  
Snow 0.00 in - - ()
Month to date snowfall 0.0  
Since 1 July snowfall 0.0  
Snow Depth 0.00 in    
Sea Level Pressure  
Sea Level Pressure 29.90 in    
Wind  
Wind Speed 4 mph (SSW)    
Max Wind Speed 10 mph    
Max Gust Speed 15 mph    
Visibility 10 miles    
Events      
T = Trace of Precipitation, MM = Missing Value Source: NWS Daily Summary

Daily Weather History Graph

Daily Weather History Graph

Search for Another Location

Airport or City:

Trip Planner

Search our weather history database for the weather conditions in past years. The results will help you decide how hot, cold, wet, or windy it might be!

Date:

Astronomy

Apr. 21, 2015 Rise Set
Actual Time 6:14 AM PDT 7:27 PM PDT
Civil Twilight 5:48 AM PDT 7:53 PM PDT
Nautical Twilight 5:17 AM PDT 8:24 PM PDT
Astronomical Twilight 4:45 AM PDT 8:56 PM PDT
Moon 8:39 AM PDT (4/21) 10:49 PM PDT (4/21)
Length of Visible Light 14h 05m
Length of Day
13h 13m
Waxing Crescent, 12% of the Moon is Illuminated
Apr 21
Waxing Crescent
Apr 25
First Quarter
May 3
Full
May 11
Last Quarter
May 17
New

Hourly Weather History & Observations

Time (PDT) Temp. Dew Point Humidity Pressure Visibility Wind Dir Wind Speed Gust Speed Precip Events Conditions
12:53 AM 60.1 °F - N/A% 29.90 in 10.0 mi Variable 3.5 mph - N/A   Overcast
1:53 AM 60.1 °F - N/A% 29.89 in 10.0 mi Calm Calm - N/A   Overcast
2:53 AM 60.1 °F - N/A% 29.88 in 10.0 mi WNW 3.5 mph - N/A   Overcast
3:53 AM 60.1 °F - N/A% 29.89 in 10.0 mi Calm Calm - N/A   Overcast
4:16 AM 60.1 °F - N/A% 29.88 in 10.0 mi Calm Calm - N/A   Overcast
4:33 AM 60.1 °F - N/A% 29.88 in 10.0 mi Calm Calm - N/A   Overcast
4:53 AM 61.0 °F - N/A% 29.88 in 10.0 mi Calm Calm - N/A   Overcast
5:04 AM 61.0 °F - N/A% 29.89 in 10.0 mi Calm Calm - N/A   Overcast
5:34 AM 61.0 °F - N/A% 29.89 in 10.0 mi Calm Calm - N/A   Overcast
5:53 AM 61.0 °F - N/A% 29.90 in 10.0 mi Calm Calm - N/A   Overcast
6:53 AM 60.1 °F 46.9 °F 62% 29.91 in 10.0 mi SSW 4.6 mph - N/A   Overcast
7:08 AM 60.1 °F 46.9 °F 62% 29.92 in 10.0 mi Calm Calm - N/A   Overcast
7:53 AM 61.0 °F 46.9 °F 60% 29.93 in 10.0 mi Calm Calm - N/A   Overcast
8:53 AM 62.1 °F 46.9 °F 58% 29.94 in 10.0 mi Calm Calm - N/A   Overcast
9:53 AM 62.1 °F 46.0 °F 56% 29.94 in 10.0 mi Variable 3.5 mph - N/A   Overcast
10:53 AM 64.0 °F 46.0 °F 52% 29.94 in 10.0 mi ESE 4.6 mph - N/A   Overcast
11:53 AM 64.9 °F 46.0 °F 50% 29.95 in 10.0 mi Variable 5.8 mph - N/A   Overcast
12:53 PM 66.0 °F 46.0 °F 48% 29.94 in 10.0 mi Variable 3.5 mph - N/A   Overcast
1:53 PM 66.9 °F 45.0 °F 45% 29.93 in 10.0 mi South 6.9 mph - N/A   Overcast
2:53 PM 68.0 °F 44.1 °F 42% 29.91 in 10.0 mi SW 8.1 mph - N/A   Overcast
3:53 PM 66.9 °F 44.1 °F 44% 29.89 in 10.0 mi SSW 9.2 mph - N/A   Scattered Clouds
4:53 PM 66.9 °F 44.1 °F 44% 29.88 in 10.0 mi South 6.9 mph - N/A   Mostly Cloudy
5:53 PM 64.9 °F 44.1 °F 47% 29.87 in 10.0 mi SW 4.6 mph - N/A   Clear
6:53 PM 63.0 °F 45.0 °F 52% 29.87 in 10.0 mi SSW 4.6 mph - N/A   Scattered Clouds
7:53 PM 63.0 °F 46.0 °F 54% 29.88 in 10.0 mi SSW 4.6 mph - N/A   Overcast
8:53 PM 62.1 °F 48.0 °F 60% 29.89 in 10.0 mi West 4.6 mph - N/A   Overcast
9:53 PM 62.1 °F 46.9 °F 58% 29.90 in 10.0 mi West 3.5 mph - N/A   Overcast
10:53 PM 61.0 °F 48.0 °F 62% 29.91 in 10.0 mi Calm Calm - N/A   Mostly Cloudy
11:53 PM 61.0 °F 48.9 °F 64% 29.91 in 10.0 mi South 4.6 mph - N/A   Mostly Cloudy